When you browse on this site, cookies collect data to enhance your experience and personalize the content and advertising you see.
Visit our Privacy Policy to learn more. By continuing to use the site, you agree to this use of cookies and data.
  • En España
  • Lista de países
  • Para 7 días
  • Temperatura del agua
  • Mapa Satelital
  • El tiempo en el mapa
  • Informadores
  • user-avatar
    Iniciar sesión

    Tiempo cada hora Calmeca

    Hoy, 25 Abril, Jueves

    Tiempo Temperatura Precipitaciones Viento Presión Humedad
    00:00 +24°C° 0 mm 1 mps 648 mmHg 31%
    01:00 +23°C° 0 mm 1 mps 648 mmHg 33%
    02:00 +23°C° 0 mm 1 mps 648 mmHg 35%
    03:00 +22°C° 0 mm 1 mps 648 mmHg 37%
    04:00 +22°C° 0 mm 1 mps 648 mmHg 39%
    05:00 +21°C° 0 mm 1 mps 648 mmHg 40%
    06:00 +24°C° 0 mm 1 mps 649 mmHg 36%
    07:00 +26°C° 0 mm 1 mps 650 mmHg 33%
    08:00 +29°C° 0 mm 1 mps 651 mmHg 29%
    09:00 +31°C° 0 mm 2 mps 651 mmHg 25%
    10:00 +32°C° 0 mm 2 mps 651 mmHg 21%
    11:00 +35°C° 0 mm 3 mps 651 mmHg 17%
    12:00 +36°C° 0 mm 3 mps 651 mmHg 16%
    13:00 +37°C° 0 mm 3 mps 651 mmHg 14%
    14:00 +37°C° 0 mm 3 mps 650 mmHg 13%
    15:00 +37°C° 0 mm 3 mps 650 mmHg 13%
    16:00 +36°C° 0 mm 3 mps 650 mmHg 13%
    17:00 +35°C° 0 mm 3 mps 650 mmHg 14%
    18:00 +32°C° 0 mm 2 mps 650 mmHg 16%
    19:00 +30°C° 0 mm 2 mps 650 mmHg 18%
    20:00 +27°C° 0 mm 2 mps 650 mmHg 20%
    21:00 +27°C° 0 mm 1 mps 651 mmHg 21%
    22:00 +26°C° 0 mm 1 mps 651 mmHg 21%
    23:00 +25°C° 0 mm 1 mps 651 mmHg 22%

    Mañana, 26 Abril, Viernes

    Tiempo Temperatura Precipitaciones Viento Presión Humedad
    00:00 +25°C° 0 mm 1 mps 651 mmHg 24%
    01:00 +24°C° 0 mm 1 mps 650 mmHg 27%
    02:00 +23°C° 0 mm 1 mps 650 mmHg 30%
    03:00 +23°C° 0 mm 1 mps 650 mmHg 33%
    04:00 +23°C° 0 mm 1 mps 650 mmHg 36%
    05:00 +22°C° 0 mm 1 mps 650 mmHg 39%
    06:00 +25°C° 0 mm 1 mps 651 mmHg 36%
    07:00 +27°C° 0 mm 1 mps 652 mmHg 34%
    08:00 +30°C° 0 mm 1 mps 653 mmHg 32%
    09:00 +32°C° 0 mm 1 mps 653 mmHg 29%
    10:00 +35°C° 0 mm 2 mps 653 mmHg 25%
    11:00 +36°C° 0 mm 2 mps 653 mmHg 22%
    12:00 +37°C° 0 mm 2 mps 653 mmHg 20%
    13:00 +38°C° 0 mm 2 mps 653 mmHg 18%
    14:00 +38°C° 0 mm 2 mps 652 mmHg 16%
    15:00 +37°C° 0 mm 2 mps 652 mmHg 18%
    16:00 +36°C° 0 mm 2 mps 651 mmHg 20%
    17:00 +35°C° 0 mm 3 mps 651 mmHg 22%
    18:00 +31°C° 0.3 mm 3 mps 651 mmHg 28%
    19:00 +29°C° 0.3 mm 3 mps 651 mmHg 35%
    20:00 +27°C° 0.3 mm 3 mps 651 mmHg 41%
    21:00 +26°C° 0 mm 3 mps 651 mmHg 43%
    22:00 +26°C° 0 mm 2 mps 652 mmHg 44%
    23:00 +25°C° 0 mm 1 mps 652 mmHg 45%

    Pasado mañana, 27 Abril, Sábado

    Tiempo Temperatura Precipitaciones Viento Presión Humedad
    00:00 +24°C° 0 mm 1 mps 651 mmHg 47%
    01:00 +24°C° 0 mm 1 mps 651 mmHg 49%
    02:00 +23°C° 0 mm 1 mps 650 mmHg 50%
    03:00 +23°C° 0 mm 1 mps 650 mmHg 51%
    04:00 +22°C° 0 mm 1 mps 650 mmHg 52%
    05:00 +22°C° 0 mm 1 mps 650 mmHg 53%
    06:00 +24°C° 0 mm 1 mps 651 mmHg 46%
    07:00 +27°C° 0 mm 1 mps 652 mmHg 40%
    08:00 +28°C° 0 mm 0 mps 653 mmHg 33%
    09:00 +31°C° 0 mm 1 mps 652 mmHg 30%
    10:00 +33°C° 0 mm 1 mps 652 mmHg 27%
    11:00 +36°C° 0 mm 2 mps 652 mmHg 24%
    12:00 +36°C° 0 mm 2 mps 652 mmHg 22%
    13:00 +37°C° 0 mm 2 mps 651 mmHg 21%
    14:00 +37°C° 0 mm 2 mps 650 mmHg 20%
    15:00 +36°C° 0 mm 2 mps 650 mmHg 20%
    16:00 +36°C° 0 mm 2 mps 649 mmHg 21%
    17:00 +35°C° 0 mm 2 mps 649 mmHg 21%
    18:00 +32°C° 0.1 mm 2 mps 649 mmHg 24%
    19:00 +31°C° 0.1 mm 1 mps 650 mmHg 27%
    20:00 +29°C° 0.1 mm 1 mps 650 mmHg 30%
    21:00 +29°C° 0 mm 1 mps 650 mmHg 31%
    22:00 +28°C° 0 mm 1 mps 650 mmHg 32%
    23:00 +28°C° 0 mm 1 mps 651 mmHg 34%

    28 Abril, Domingo

    Tiempo Temperatura Precipitaciones Viento Presión Humedad
    00:00 +27°C° 0 mm 1 mps 650 mmHg 35%
    01:00 +26°C° 0 mm 1 mps 650 mmHg 36%
    02:00 +26°C° 0 mm 1 mps 649 mmHg 37%
    03:00 +25°C° 0 mm 1 mps 649 mmHg 39%
    04:00 +24°C° 0 mm 1 mps 649 mmHg 40%
    05:00 +23°C° 0 mm 1 mps 649 mmHg 41%
    06:00 +25°C° 0 mm 1 mps 650 mmHg 36%
    07:00 +27°C° 0 mm 1 mps 651 mmHg 31%
    08:00 +29°C° 0 mm 1 mps 652 mmHg 27%
    09:00 +31°C° 0 mm 1 mps 652 mmHg 23%
    10:00 +34°C° 0 mm 2 mps 652 mmHg 20%
    11:00 +36°C° 0 mm 2 mps 652 mmHg 17%
    12:00 +36°C° 0 mm 2 mps 651 mmHg 16%
    13:00 +37°C° 0 mm 2 mps 650 mmHg 15%
    14:00 +38°C° 0 mm 2 mps 650 mmHg 14%
    15:00 +37°C° 0 mm 2 mps 650 mmHg 15%
    16:00 +36°C° 0 mm 2 mps 649 mmHg 15%
    17:00 +35°C° 0 mm 2 mps 649 mmHg 16%
    18:00 +33°C° 0 mm 1 mps 650 mmHg 17%
    19:00 +32°C° 0 mm 1 mps 650 mmHg 19%
    20:00 +31°C° 0 mm 1 mps 651 mmHg 20%
    21:00 +30°C° 0 mm 1 mps 651 mmHg 24%
    22:00 +29°C° 0 mm 1 mps 651 mmHg 27%
    23:00 +28°C° 0 mm 1 mps 650 mmHg 31%

    29 Abril, Lunes

    Tiempo Temperatura Precipitaciones Viento Presión Humedad
    00:00 +27°C° 0 mm 1 mps 650 mmHg 35%
    01:00 +24°C° 0 mm 0 mps 649 mmHg 39%
    02:00 +23°C° 0 mm 0 mps 649 mmHg 43%
    03:00 +22°C° 0 mm 0 mps 649 mmHg 45%
    04:00 +22°C° 0 mm 0 mps 649 mmHg 46%
    05:00 +23°C° 0 mm 1 mps 649 mmHg 47%
    06:00 +26°C° 0 mm 1 mps 650 mmHg 43%
    07:00 +28°C° 0 mm 1 mps 651 mmHg 39%
    08:00 +30°C° 0 mm 1 mps 652 mmHg 35%
    09:00 +32°C° 0 mm 1 mps 652 mmHg 31%
    10:00 +34°C° 0 mm 1 mps 652 mmHg 27%
    11:00 +37°C° 0 mm 2 mps 652 mmHg 23%
    12:00 +37°C° 0 mm 2 mps 651 mmHg 21%
    13:00 +38°C° 0 mm 2 mps 651 mmHg 19%
    14:00 +39°C° 0 mm 2 mps 650 mmHg 17%
    15:00 +38°C° 0 mm 2 mps 650 mmHg 17%
    16:00 +37°C° 0 mm 2 mps 650 mmHg 18%
    17:00 +36°C° 0 mm 2 mps 650 mmHg 18%
    18:00 +35°C° 0 mm 2 mps 651 mmHg 22%
    19:00 +32°C° 0 mm 2 mps 651 mmHg 25%
    20:00 +31°C° 0 mm 2 mps 652 mmHg 29%
    21:00 +30°C° 0.1 mm 2 mps 651 mmHg 34%
    22:00 +28°C° 0.1 mm 2 mps 651 mmHg 38%
    23:00 +27°C° 0.1 mm 1 mps 651 mmHg 43%

    30 Abril, Martes

    Tiempo Temperatura Precipitaciones Viento Presión Humedad
    00:00 +27°C° 0 mm 1 mps 650 mmHg 44%
    01:00 +26°C° 0 mm 1 mps 650 mmHg 45%
    02:00 +25°C° 0 mm 1 mps 649 mmHg 47%
    03:00 +25°C° 0 mm 1 mps 649 mmHg 47%
    04:00 +24°C° 0 mm 1 mps 649 mmHg 47%
    05:00 +24°C° 0 mm 1 mps 649 mmHg 48%
    06:00 +26°C° 0 mm 1 mps 650 mmHg 42%
    07:00 +29°C° 0 mm 1 mps 651 mmHg 37%
    08:00 +31°C° 0 mm 1 mps 652 mmHg 31%
    09:00 +33°C° 0 mm 1 mps 652 mmHg 28%
    10:00 +35°C° 0 mm 1 mps 652 mmHg 26%
    11:00 +37°C° 0 mm 2 mps 652 mmHg 23%
    12:00 +38°C° 0 mm 2 mps 651 mmHg 22%
    13:00 +38°C° 0 mm 2 mps 651 mmHg 20%
    14:00 +39°C° 0 mm 2 mps 650 mmHg 19%
    15:00 +37°C° 0 mm 1 mps 650 mmHg 20%
    16:00 +36°C° 0 mm 1 mps 650 mmHg 21%
    17:00 +35°C° 0 mm 1 mps 650 mmHg 22%
    18:00 +34°C° 0.1 mm 1 mps 650 mmHg 26%
    19:00 +32°C° 0.1 mm 1 mps 651 mmHg 29%
    20:00 +31°C° 0.1 mm 2 mps 651 mmHg 33%
    21:00 +29°C° 1.1 mm 2 mps 651 mmHg 40%
    22:00 +27°C° 1.1 mm 2 mps 650 mmHg 47%
    23:00 +25°C° 1.1 mm 2 mps 650 mmHg 54%
    Mostrar más